Regional Weather Roundup
Issued by NWS

Home | Current Version | Previous Version | Text Only | Print | Product List | Glossary Off
Versions: 1 2 3 4 5 6 7 8 9 10 11 12 13 14 15 16 17 18 19 20 21 22 23 24 25 26 27 28 29 30 31 32 33 34 35 36 37 38 39 40 41 42 43 44 45 46 47 48 49 50

278
ASUS43 KLSX 222210
RWRMO

WEATHER SUMMARY FOR MISSOURI
NATIONAL WEATHER SERVICE SPRINGFIELD MO
400 PM CST WED FEB 22 2017

NOTE: "FAIR" INDICATES FEW OR NO CLOUDS BELOW 12,000 FEET WITH NO
       SIGNIFICANT WEATHER AND/OR OBSTRUCTIONS TO VISIBILITY.
       CURRENT SKY AND/OR WEATHER CONDITIONS ARE NOT AVAILABLE FOR
       CHILLICOTHE AND FARMINGTON.

MOZ001>031-035>038-043-044-053-054-222300-
...NORTHERN AND WESTERN MISSOURI...

CITY           SKY/WX    TMP DP  RH WIND       PRES   REMARKS
KANSAS CTY INT PTSUNNY   78  34  20 SW15      29.63F
KANSAS C DTWN  SUNNY     80  35  19 SW6       29.61F
LEE`S SUMMIT   SUNNY     79  35  20 SW20      29.64F
ST JOSEPH      SUNNY     76  37  24 SW5       29.63S
CHILLICOTHE      N/A     77  42  28 SW9       29.62F
KIRKSVILLE     SUNNY     72  46  39 SW18G28   29.64R

$$
MOZ066>068-077>081-088>096-101>105-222300-
...SOUTHWEST MISSOURI...

CITY           SKY/WX    TMP DP  RH WIND       PRES   REMARKS
SPRINGFIELD    SUNNY     70  56  61 SE12      29.72F
JOPLIN         SUNNY     78  45  30 SW12      29.71F
BRANSON        PTSUNNY   73  55  53 CALM      29.75F

$$
MOZ032>034-039>042-045>050-055>058-069>072-222300-
...CENTRAL MISSOURI...

CITY           SKY/WX    TMP DP  RH WIND       PRES   REMARKS
COLUMBIA       CLOUDY    70  55  59 S17       29.69F
JEFFERSON CITY MOSUNNY   67  54  63 S8        29.70F
ROLLA          SUNNY     70  55  59 S10       29.72F
SEDALIA        MOSUNNY   76  48  37 SW15      29.67F
WHITEMAN AFB   MOSUNNY   77  43  29 SW18      29.64F
WARRENSBURG    SUNNY     77  41  27 S15       29.65S
OSAGE BEACH    SUNNY     72  55  55 S12       29.71

$$
MOZ051-052-059>065-222300-
...EAST CENTRAL MISSOURI...

CITY           SKY/WX    TMP DP  RH WIND       PRES   REMARKS
ST LOUIS INTL  CLOUDY    73  56  54 W5        29.72F
SPIRIT OF STL  MOSUNNY   71  57  61 CALM      29.71F
ST CHARLES     CLOUDY    66  57  72 CALM      29.71F

$$
MOZ072>076-082>087-097>100-106>115-222300-
...SOUTH CENTRAL AND SOUTHEAST MISSOURI...

CITY           SKY/WX    TMP DP  RH WIND       PRES   REMARKS
CAPE GIRARDEAU SUNNY     68  56  65 S13       29.78F
FARMINGTON     SUNNY     71  54  54 S13G21    29.76S
POPLAR BLUFF   MOSUNNY   69  58  67 SW10      29.79S
WEST PLAINS    SUNNY     67  55  65 S10       29.78F

$$




USA.gov is the U.S. government's official web portal to all federal, state and local government web resources and services.